"read_dt","SO2 (ppb)","flags","PMT voltage (V)","lamp voltage (V)","lamp intensity (Hz)","internal temp (C)","react chamber temp (C)","sample flow (l/min)","pres (mmHg)","SO2 bkg (ppb)","SO2 coefficient"
2016-04-07 00:00:00,1664E-3,5C000400,-0724,0835,12173,023.3,045.3,0.264,758.6,01.16,0.508
2016-04-07 00:01:00,1648E-3,5C000400,-0724,0834,12028,023.3,045.3,0.264,758.6,01.16,0.508
2016-04-07 00:02:00,1795E-3,5C000400,-0724,0835,12021,023.3,045.3,0.264,758.6,01.16,0.508
2016-04-07 00:03:00,1848E-3,5C000400,-0724,0835,12063,023.3,045.3,0.263,758.7,01.16,0.508
2016-04-07 00:04:00,1815E-3,5C000400,-0724,0835,12229,023.3,045.3,0.263,758.7,01.16,0.508
2016-04-07 00:05:00,1778E-3,5C000400,-0724,0835,12194,023.3,045.3,0.263,758.7,01.16,0.508
2016-04-07 00:06:00,1742E-3,5C000400,-0724,0835,12051,023.3,045.3,0.263,758.7,01.16,0.508
2016-04-07 00:07:00,1800E-3,5C000400,-0724,0834,12067,023.3,045.3,0.264,758.6,01.16,0.508
2016-04-07 00:08:00,1684E-3,5C000400,-0724,0835,12156,023.3,045.3,0.264,758.6,01.16,0.508
2016-04-07 00:09:00,1824E-3,5C000400,-0724,0835,12235,023.3,045.3,0.264,758.6,01.16,0.508
2016-04-07 00:10:00,1793E-3,5C000400,-0724,0835,12185,023.3,045.3,0.264,758.6,01.16,0.508
2016-04-07 00:11:00,1621E-3,5C000400,-0724,0835,12108,023.3,045.3,0.263,758.7,01.16,0.508
2016-04-07 00:12:00,1864E-3,5C000400,-0724,0834,12196,023.3,045.3,0.263,758.7,01.16,0.508
2016-04-07 00:13:00,1724E-3,5C000400,-0724,0835,12186,023.3,045.3,0.264,758.6,01.16,0.508
2016-04-07 00:14:00,1691E-3,5C000400,-0724,0836,12120,023.3,045.3,0.264,758.7,01.16,0.508
2016-04-07 00:15:00,1745E-3,5C000400,-0724,0834,12110,023.3,045.3,0.264,758.6,01.16,0.508
2016-04-07 00:16:00,1729E-3,5C000400,-0724,0835,12196,023.3,045.3,0.263,758.7,01.16,0.508
2016-04-07 00:17:00,1684E-3,5C000400,-0724,0834,12251,023.3,045.3,0.263,758.7,01.16,0.508
2016-04-07 00:18:00,1808E-3,5C000400,-0724,0834,12203,023.3,045.3,0.263,758.7,01.16,0.508
2016-04-07 00:19:00,1764E-3,5C000400,-0724,0835,12093,023.3,045.3,0.263,758.7,01.16,0.508
2016-04-07 00:20:00,1782E-3,5C000400,-0724,0835,12023,023.3,045.3,0.263,758.7,01.16,0.508
2016-04-07 00:21:00,1775E-3,5C000400,-0724,0835,12351,023.3,045.3,0.263,758.6,01.16,0.508
2016-04-07 00:22:00,1699E-3,5C000400,-0724,0834,12159,023.3,045.3,0.263,758.7,01.16,0.508
2016-04-07 00:23:00,1733E-3,5C000400,-0724,0835,12067,023.3,045.3,0.263,758.6,01.16,0.508
2016-04-07 00:24:00,1706E-3,5C000400,-0724,0835,12134,023.3,045.3,0.263,758.6,01.16,0.508
2016-04-07 00:25:00,1703E-3,5C000400,-0724,0835,12280,023.4,045.3,0.263,758.7,01.16,0.508
2016-04-07 00:26:00,1935E-3,5C000400,-0724,0834,12081,023.4,045.3,0.263,758.6,01.16,0.508
2016-04-07 00:27:00,1698E-3,5C000400,-0724,0835,12219,023.4,045.3,0.263,758.7,01.16,0.508
2016-04-07 00:28:00,1719E-3,5C000400,-0724,0835,12330,023.4,045.3,0.263,758.6,01.16,0.508
2016-04-07 00:29:00,1629E-3,5C000400,-0724,0835,12295,023.4,045.3,0.264,758.6,01.16,0.508
2016-04-07 00:30:00,1678E-3,5C000400,-0724,0835,12092,023.4,045.3,0.263,758.7,01.16,0.508
2016-04-07 00:31:00,1661E-3,5C000400,-0724,0835,12093,023.4,045.3,0.263,758.7,01.16,0.508
2016-04-07 00:32:00,1865E-3,5C000400,-0724,0836,12151,023.4,045.3,0.263,758.6,01.16,0.508
2016-04-07 00:33:00,1808E-3,5C000400,-0724,0836,12194,023.4,045.3,0.263,758.7,01.16,0.508
2016-04-07 00:34:00,1712E-3,5C000400,-0724,0835,12166,023.4,045.3,0.263,758.7,01.16,0.508
2016-04-07 00:35:00,1900E-3,5C000400,-0724,0835,12154,023.4,045.3,0.264,758.7,01.16,0.508
2016-04-07 00:36:00,1764E-3,5C000400,-0724,0835,12187,023.4,045.3,0.263,758.7,01.16,0.508
2016-04-07 00:37:00,1662E-3,5C000400,-0724,0835,12088,023.4,045.3,0.263,758.7,01.16,0.508
2016-04-07 00:38:00,1783E-3,5C000400,-0724,0835,12250,023.4,045.3,0.263,758.7,01.16,0.508
2016-04-07 00:39:00,1709E-3,5C000400,-0724,0835,12193,023.4,045.3,0.263,758.7,01.16,0.508
2016-04-07 00:40:00,1789E-3,5C000400,-0724,0836,12231,023.4,045.3,0.263,758.7,01.16,0.508
2016-04-07 00:41:00,1676E-3,5C000400,-0724,0835,12185,023.4,045.3,0.263,758.7,01.16,0.508
2016-04-07 00:42:00,1845E-3,5C000400,-0724,0835,12292,023.4,045.3,0.263,758.7,01.16,0.508
2016-04-07 00:43:00,1816E-3,5C000400,-0724,0834,12242,023.4,045.3,0.263,758.7,01.16,0.508
2016-04-07 00:44:00,1616E-3,5C000400,-0724,0835,12141,023.5,045.3,0.264,758.7,01.16,0.508
2016-04-07 00:45:00,1752E-3,5C000400,-0724,0835,12148,023.5,045.3,0.263,758.7,01.16,0.508
2016-04-07 00:46:00,1805E-3,5C000400,-0724,0835,12113,023.5,045.3,0.263,758.7,01.16,0.508
2016-04-07 00:47:00,1746E-3,5C000400,-0724,0835,12176,023.5,045.3,0.263,758.7,01.16,0.508
2016-04-07 00:48:00,1742E-3,5C000400,-0724,0835,12114,023.5,045.3,0.263,758.7,01.16,0.508
2016-04-07 00:49:00,1832E-3,5C000400,-0724,0835,12144,023.5,045.3,0.263,758.7,01.16,0.508
2016-04-07 00:50:00,1899E-3,5C000400,-0724,0835,12281,023.5,045.3,0.263,758.7,01.16,0.508
2016-04-07 00:51:00,1809E-3,5C000400,-0724,0835,12192,023.5,045.3,0.263,758.7,01.16,0.508
2016-04-07 00:52:00,1778E-3,5C000400,-0724,0835,12036,023.5,045.3,0.263,758.7,01.16,0.508
2016-04-07 00:53:00,1765E-3,5C000400,-0724,0836,12178,023.5,045.3,0.263,758.7,01.16,0.508
2016-04-07 00:54:00,1694E-3,5C000400,-0724,0835,12074,023.5,045.3,0.263,758.7,01.16,0.508
2016-04-07 00:55:00,1850E-3,5C000400,-0724,0835,12187,023.5,045.3,0.263,758.8,01.16,0.508
2016-04-07 00:56:00,1807E-3,5C000400,-0724,0835,12202,023.5,045.3,0.263,758.8,01.16,0.508
2016-04-07 00:57:00,1642E-3,5C000400,-0724,0834,12109,023.5,045.3,0.263,758.8,01.16,0.508
2016-04-07 00:58:00,1709E-3,5C000400,-0724,0835,12202,023.5,045.3,0.263,758.8,01.16,0.508
2016-04-07 00:59:00,1696E-3,5C000400,-0724,0835,12086,023.5,045.3,0.263,758.7,01.16,0.508
2016-04-07 01:00:00,1734E-3,5C000400,-0724,0835,12178,023.5,045.3,0.263,758.8,01.16,0.508
2016-04-07 01:01:00,1760E-3,5C000400,-0724,0835,12056,023.6,045.3,0.263,758.8,01.16,0.508
2016-04-07 01:02:00,1844E-3,5C000400,-0724,0835,12082,023.6,045.3,0.263,758.8,01.16,0.508
2016-04-07 01:03:00,1972E-3,5C000400,-0724,0835,12129,023.6,045.3,0.263,758.8,01.16,0.508
2016-04-07 01:04:00,1826E-3,5C000400,-0724,0835,12278,023.6,045.3,0.263,758.8,01.16,0.508
2016-04-07 01:05:00,1806E-3,5C000400,-0724,0835,12114,023.6,045.3,0.263,758.8,01.16,0.508
2016-04-07 01:06:00,1792E-3,5C000400,-0724,0835,12242,023.6,045.3,0.263,758.8,01.16,0.508
2016-04-07 01:07:00,1773E-3,5C000400,-0724,0835,12181,023.6,045.3,0.263,758.7,01.16,0.508
2016-04-07 01:08:00,1774E-3,5C000400,-0724,0836,12228,023.6,045.3,0.264,758.7,01.16,0.508
2016-04-07 01:09:00,1846E-3,5C000400,-0724,0836,12128,023.6,045.3,0.263,758.7,01.16,0.508
2016-04-07 01:10:00,1671E-3,5C000400,-0724,0834,12200,023.6,045.3,0.263,758.7,01.16,0.508
2016-04-07 01:11:00,1800E-3,5C000400,-0724,0835,12172,023.6,045.3,0.263,758.8,01.16,0.508
2016-04-07 01:12:00,1688E-3,5C000400,-0724,0835,12140,023.6,045.3,0.263,758.8,01.16,0.508
2016-04-07 01:13:00,1763E-3,5C000400,-0724,0835,12242,023.7,045.3,0.263,758.8,01.16,0.508
2016-04-07 01:14:00,1774E-3,5C000400,-0724,0835,12201,023.6,045.3,0.263,758.8,01.16,0.508
2016-04-07 01:15:00,1837E-3,5C000400,-0724,0835,12121,023.6,045.3,0.263,758.8,01.16,0.508
2016-04-07 01:16:00,1892E-3,5C000400,-0724,0835,12105,023.6,045.3,0.263,758.8,01.16,0.508
2016-04-07 01:17:00,1813E-3,5C000400,-0724,0834,12227,023.7,045.3,0.263,758.8,01.16,0.508
2016-04-07 01:18:00,1829E-3,5C000400,-0724,0835,12123,023.7,045.3,0.263,758.8,01.16,0.508
2016-04-07 01:19:00,1802E-3,5C000400,-0724,0835,12219,023.7,045.3,0.263,758.8,01.16,0.508
2016-04-07 01:20:00,1816E-3,5C000400,-0724,0835,12150,023.7,045.3,0.263,758.8,01.16,0.508
2016-04-07 01:21:00,1643E-3,5C000400,-0724,0835,12147,023.7,045.3,0.263,758.8,01.16,0.508
2016-04-07 01:22:00,1847E-3,5C000400,-0724,0834,12161,023.7,045.3,0.262,758.8,01.16,0.508
2016-04-07 01:23:00,1820E-3,5C000400,-0724,0836,12082,023.7,045.3,0.263,758.8,01.16,0.508
2016-04-07 01:24:00,1777E-3,5C000400,-0724,0835,12188,023.7,045.3,0.263,758.8,01.16,0.508
2016-04-07 01:25:00,1830E-3,5C000400,-0724,0836,12180,023.7,045.3,0.263,758.8,01.16,0.508
2016-04-07 01:26:00,1710E-3,5C000400,-0724,0835,12208,023.7,045.3,0.263,758.8,01.16,0.508
2016-04-07 01:27:00,1841E-3,5C000400,-0724,0835,12184,023.7,045.3,0.262,758.8,01.16,0.508
2016-04-07 01:28:00,1786E-3,5C000400,-0724,0835,12341,023.7,045.3,0.263,758.8,01.16,0.508
2016-04-07 01:29:00,1877E-3,5C000400,-0724,0834,12168,023.8,045.3,0.263,758.8,01.16,0.508
2016-04-07 01:30:00,1852E-3,5C000400,-0724,0836,12174,023.8,045.3,0.263,758.8,01.16,0.508
2016-04-07 01:31:00,1648E-3,5C000400,-0724,0835,12156,023.7,045.3,0.263,758.8,01.16,0.508
2016-04-07 01:32:00,1725E-3,5C000400,-0724,0835,12055,023.8,045.3,0.262,758.8,01.16,0.508
2016-04-07 01:33:00,1785E-3,5C000400,-0724,0835,12214,023.8,045.3,0.263,758.8,01.16,0.508
2016-04-07 01:34:00,1834E-3,5C000400,-0724,0835,12204,023.8,045.3,0.263,758.8,01.16,0.508
2016-04-07 01:35:00,1901E-3,5C000400,-0724,0835,12003,023.8,045.3,0.263,758.8,01.16,0.508
2016-04-07 01:36:00,1711E-3,5C000400,-0724,0834,12137,023.8,045.3,0.263,758.8,01.16,0.508
2016-04-07 01:37:00,1801E-3,5C000400,-0724,0835,12111,023.8,045.3,0.263,758.8,01.16,0.508
2016-04-07 01:38:00,1621E-3,5C000400,-0724,0835,12033,023.8,045.3,0.262,758.8,01.16,0.508
2016-04-07 01:39:00,1847E-3,5C000400,-0724,0835,12077,023.8,045.3,0.262,758.8,01.16,0.508
2016-04-07 01:40:00,1752E-3,5C000400,-0724,0834,12182,023.8,045.3,0.262,758.8,01.16,0.508
2016-04-07 01:41:00,1812E-3,5C000400,-0724,0835,12270,023.8,045.3,0.262,758.8,01.16,0.508
2016-04-07 01:42:00,1742E-3,5C000400,-0724,0835,12088,023.8,045.3,0.263,758.8,01.16,0.508
2016-04-07 01:43:00,1707E-3,5C000400,-0724,0836,12193,023.9,045.3,0.263,758.8,01.16,0.508
2016-04-07 01:44:00,1785E-3,5C000400,-0724,0835,12004,023.9,045.3,0.263,758.8,01.16,0.508
2016-04-07 01:45:00,1767E-3,5C000400,-0724,0835,12108,023.9,045.3,0.262,758.8,01.16,0.508
2016-04-07 01:46:00,1725E-3,5C000400,-0724,0835,11935,023.9,045.3,0.263,758.8,01.16,0.508
2016-04-07 01:47:00,1702E-3,5C000400,-0724,0835,11974,023.9,045.3,0.263,758.8,01.16,0.508
2016-04-07 01:48:00,1703E-3,5C000400,-0724,0836,12182,023.9,045.3,0.263,758.8,01.16,0.508
2016-04-07 01:49:00,1808E-3,5C000400,-0724,0835,12058,023.9,045.3,0.263,758.8,01.16,0.508
2016-04-07 01:50:00,1718E-3,5C000400,-0724,0834,12071,024.0,045.3,0.263,758.8,01.16,0.508
2016-04-07 01:51:00,1728E-3,5C000400,-0724,0835,12130,023.9,045.3,0.262,758.8,01.16,0.508
2016-04-07 01:52:00,1723E-3,5C000400,-0724,0835,12135,024.0,045.3,0.262,758.8,01.16,0.508
2016-04-07 01:53:00,1875E-3,5C000400,-0724,0835,12018,024.0,045.3,0.262,758.9,01.16,0.508
2016-04-07 01:54:00,1893E-3,5C000400,-0724,0835,12106,024.0,045.3,0.262,758.9,01.16,0.508
2016-04-07 01:55:00,1732E-3,5C000400,-0724,0835,11984,024.0,045.3,0.262,758.9,01.16,0.508
2016-04-07 01:56:00,1747E-3,5C000400,-0724,0835,12271,024.0,045.3,0.263,758.9,01.16,0.508
2016-04-07 01:57:00,1742E-3,5C000400,-0724,0835,12136,024.0,045.3,0.262,758.9,01.16,0.508
2016-04-07 01:58:00,1615E-3,5C000400,-0724,0836,12038,024.0,045.3,0.262,758.9,01.16,0.508
2016-04-07 01:59:00,1718E-3,5C000400,-0724,0835,12056,024.0,045.3,0.262,758.9,01.16,0.508
2016-04-07 02:00:00,1795E-3,5C000400,-0724,0835,12073,024.0,045.3,0.262,758.8,01.16,0.508
2016-04-07 02:01:00,1803E-3,5C000400,-0724,0836,12190,024.0,045.3,0.262,758.8,01.16,0.508
2016-04-07 02:02:00,1746E-3,5C000400,-0724,0836,12174,024.0,045.3,0.262,758.8,01.16,0.508
2016-04-07 02:03:00,1703E-3,5C000400,-0724,0835,12078,024.0,045.3,0.262,758.8,01.16,0.508
2016-04-07 02:04:00,1792E-3,5C000400,-0724,0835,12162,024.0,045.3,0.262,758.8,01.16,0.508
2016-04-07 02:05:00,1636E-3,5C000400,-0724,0835,12150,024.1,045.3,0.262,758.8,01.16,0.508
2016-04-07 02:06:00,1735E-3,5C000400,-0724,0835,12223,024.1,045.3,0.262,758.8,01.16,0.508
2016-04-07 02:07:00,1726E-3,5C000400,-0724,0835,12098,024.1,045.3,0.262,758.8,01.16,0.508
2016-04-07 02:08:00,1696E-3,5C000400,-0724,0835,12154,024.1,045.3,0.263,758.8,01.16,0.508
2016-04-07 02:09:00,1698E-3,5C000400,-0724,0835,12197,024.1,045.3,0.263,758.8,01.16,0.508
2016-04-07 02:10:00,1823E-3,5C000400,-0724,0835,12230,024.1,045.3,0.263,758.8,01.16,0.508
2016-04-07 02:11:00,1703E-3,5C000400,-0724,0835,12260,024.1,045.3,0.262,758.9,01.16,0.508
2016-04-07 02:12:00,1911E-3,5C000400,-0724,0835,12147,024.1,045.3,0.262,758.8,01.16,0.508
2016-04-07 02:13:00,1781E-3,5C000400,-0724,0834,12202,024.1,045.3,0.262,758.9,01.16,0.508
2016-04-07 02:14:00,1825E-3,5C000400,-0724,0835,12169,024.2,045.3,0.262,758.9,01.16,0.508
2016-04-07 02:15:00,1758E-3,5C000400,-0724,0835,11993,024.1,045.3,0.262,758.9,01.16,0.508
2016-04-07 02:16:00,1791E-3,5C000400,-0724,0835,12188,024.1,045.3,0.262,758.9,01.16,0.508
2016-04-07 02:17:00,1830E-3,5C000400,-0724,0835,12231,024.2,045.3,0.262,758.9,01.16,0.508
2016-04-07 02:18:00,1804E-3,5C000400,-0724,0835,12219,024.2,045.3,0.262,758.9,01.16,0.508
2016-04-07 02:19:00,1744E-3,5C000400,-0724,0835,12064,024.2,045.3,0.262,758.9,01.16,0.508
2016-04-07 02:20:00,1792E-3,5C000400,-0724,0835,12222,024.2,045.3,0.262,759.0,01.16,0.508
2016-04-07 02:21:00,1740E-3,5C000400,-0724,0835,12174,024.2,045.3,0.262,759.0,01.16,0.508
2016-04-07 02:22:00,1804E-3,5C000400,-0724,0835,12151,024.2,045.3,0.262,759.0,01.16,0.508
2016-04-07 02:23:00,1698E-3,5C000400,-0724,0834,12130,024.2,045.3,0.262,759.0,01.16,0.508
2016-04-07 02:24:00,1817E-3,5C000400,-0724,0835,12014,024.2,045.3,0.262,759.0,01.16,0.508
2016-04-07 02:25:00,1768E-3,5C000400,-0724,0835,12070,024.2,045.3,0.262,759.0,01.16,0.508
2016-04-07 02:26:00,1872E-3,5C000400,-0724,0835,12101,024.2,045.3,0.262,759.0,01.16,0.508
2016-04-07 02:27:00,1813E-3,5C000400,-0724,0836,12287,024.2,045.3,0.262,759.0,01.16,0.508
2016-04-07 02:28:00,1809E-3,5C000400,-0724,0835,12230,024.3,045.3,0.262,759.0,01.16,0.508
2016-04-07 02:29:00,1794E-3,5C000400,-0724,0835,12218,024.3,045.3,0.262,759.1,01.16,0.508
2016-04-07 02:30:00,1778E-3,5C000400,-0724,0835,12070,024.3,045.3,0.262,759.1,01.16,0.508
2016-04-07 02:31:00,1805E-3,5C000400,-0724,0835,12227,024.3,045.3,0.262,759.1,01.16,0.508
2016-04-07 02:32:00,1793E-3,5C000400,-0724,0835,12174,024.3,045.3,0.262,759.1,01.16,0.508
2016-04-07 02:33:00,1692E-3,5C000400,-0724,0835,12096,024.3,045.3,0.261,759.1,01.16,0.508
2016-04-07 02:34:00,1827E-3,5C000400,-0724,0836,12039,024.3,045.3,0.262,759.1,01.16,0.508
2016-04-07 02:35:00,1821E-3,5C000400,-0724,0835,12197,024.3,045.3,0.262,759.1,01.16,0.508
2016-04-07 02:36:00,1854E-3,5C000400,-0724,0835,12089,024.3,045.3,0.262,759.1,01.16,0.508
2016-04-07 02:37:00,1731E-3,5C000400,-0724,0834,12175,024.3,045.3,0.262,759.1,01.16,0.508
2016-04-07 02:38:00,1760E-3,5C000400,-0724,0835,12050,024.4,045.3,0.261,759.1,01.16,0.508
2016-04-07 02:39:00,1724E-3,5C000400,-0724,0834,12059,024.4,045.3,0.262,759.1,01.16,0.508
2016-04-07 02:40:00,1759E-3,5C000400,-0724,0836,12112,024.4,045.3,0.262,759.1,01.16,0.508
2016-04-07 02:41:00,1857E-3,5C000400,-0724,0836,12073,024.4,045.3,0.262,759.1,01.16,0.508
2016-04-07 02:42:00,1959E-3,5C000400,-0724,0835,12205,024.4,045.3,0.262,759.2,01.16,0.508
2016-04-07 02:43:00,1826E-3,5C000400,-0724,0835,12075,024.4,045.3,0.261,759.2,01.16,0.508
2016-04-07 02:44:00,1842E-3,5C000400,-0724,0835,11995,024.4,045.3,0.262,759.2,01.16,0.508
2016-04-07 02:45:00,1781E-3,5C000400,-0724,0835,12196,024.4,045.3,0.262,759.2,01.16,0.508
2016-04-07 02:46:00,1867E-3,5C000400,-0724,0835,12221,024.4,045.3,0.262,759.2,01.16,0.508
2016-04-07 02:47:00,1861E-3,5C000400,-0724,0835,12092,024.4,045.3,0.262,759.2,01.16,0.508
2016-04-07 02:48:00,1626E-3,5C000400,-0724,0835,12133,024.4,045.3,0.262,759.2,01.16,0.508
2016-04-07 02:49:00,1845E-3,5C000400,-0724,0835,12244,024.4,045.3,0.262,759.2,01.16,0.508
2016-04-07 02:50:00,1829E-3,5C000400,-0724,0835,12099,024.5,045.3,0.262,759.2,01.16,0.508
2016-04-07 02:51:00,1821E-3,5C000400,-0724,0835,12224,024.5,045.3,0.262,759.2,01.16,0.508
2016-04-07 02:52:00,1863E-3,5C000400,-0724,0835,12203,024.5,045.3,0.262,759.2,01.16,0.508
2016-04-07 02:53:00,1739E-3,5C000400,-0724,0835,12017,024.5,045.3,0.262,759.2,01.16,0.508
2016-04-07 02:54:00,1817E-3,5C000400,-0724,0835,12115,024.5,045.3,0.262,759.2,01.16,0.508
2016-04-07 02:55:00,1816E-3,5C000400,-0724,0835,12203,024.5,045.3,0.262,759.2,01.16,0.508
2016-04-07 02:56:00,1799E-3,5C000400,-0724,0835,11998,024.5,045.4,0.262,759.2,01.16,0.508
2016-04-07 02:57:00,1743E-3,5C000400,-0724,0835,12025,024.5,045.3,0.262,759.2,01.16,0.508
2016-04-07 02:58:00,1828E-3,5C000400,-0724,0835,12144,024.5,045.3,0.262,759.2,01.16,0.508
2016-04-07 02:59:00,1932E-3,5C000400,-0724,0835,11979,024.5,045.3,0.261,759.2,01.16,0.508
2016-04-07 03:00:00,1822E-3,5C000400,-0724,0835,12216,024.6,045.3,0.261,759.2,01.16,0.508
2016-04-07 03:01:00,1831E-3,5C000400,-0724,0836,12199,024.6,045.3,0.261,759.2,01.16,0.508
2016-04-07 03:02:00,1800E-3,5C000400,-0724,0834,12113,024.5,045.3,0.261,759.2,01.16,0.508
2016-04-07 03:03:00,1657E-3,5C000400,-0724,0835,12185,024.6,045.3,0.261,759.2,01.16,0.508
2016-04-07 03:04:00,1766E-3,5C000400,-0724,0835,12091,024.6,045.3,0.261,759.2,01.16,0.508
2016-04-07 03:05:00,1736E-3,5C000400,-0724,0835,12117,024.6,045.3,0.262,759.2,01.16,0.508
2016-04-07 03:06:00,1798E-3,5C000400,-0724,0835,12039,024.6,045.3,0.261,759.2,01.16,0.508
2016-04-07 03:07:00,1706E-3,5C000400,-0724,0836,12099,024.6,045.3,0.262,759.2,01.16,0.508
2016-04-07 03:08:00,1673E-3,5C000400,-0724,0836,12069,024.7,045.3,0.261,759.2,01.16,0.508
2016-04-07 03:09:00,1780E-3,5C000400,-0724,0835,12133,024.6,045.3,0.261,759.2,01.16,0.508
2016-04-07 03:10:00,1768E-3,5C000400,-0724,0835,12251,024.7,045.3,0.262,759.2,01.16,0.508
2016-04-07 03:11:00,1798E-3,5C000400,-0724,0835,12092,024.6,045.3,0.261,759.2,01.16,0.508
2016-04-07 03:12:00,1894E-3,5C000400,-0724,0835,12104,024.6,045.3,0.261,759.2,01.16,0.508
2016-04-07 03:13:00,1834E-3,5C000400,-0724,0836,12103,024.7,045.3,0.261,759.2,01.16,0.508
2016-04-07 03:14:00,1809E-3,5C000400,-0724,0835,12023,024.7,045.3,0.261,759.2,01.16,0.508
2016-04-07 03:15:00,1846E-3,5C000400,-0724,0835,12204,024.7,045.3,0.261,759.2,01.16,0.508
2016-04-07 03:16:00,1709E-3,5C000400,-0724,0835,12097,024.7,045.3,0.261,759.2,01.16,0.508
2016-04-07 03:17:00,1848E-3,5C000400,-0724,0835,11967,024.7,045.3,0.261,759.2,01.16,0.508
2016-04-07 03:18:00,1777E-3,5C000400,-0724,0835,12035,024.7,045.3,0.261,759.2,01.16,0.508
2016-04-07 03:19:00,1748E-3,5C000400,-0724,0835,12114,024.7,045.3,0.261,759.2,01.16,0.508
2016-04-07 03:20:00,1720E-3,5C000400,-0724,0835,12189,024.7,045.3,0.261,759.2,01.16,0.508
2016-04-07 03:21:00,1682E-3,5C000400,-0724,0835,12343,024.8,045.3,0.261,759.2,01.16,0.508
2016-04-07 03:22:00,1845E-3,5C000400,-0724,0836,12077,024.8,045.3,0.261,759.2,01.16,0.508
2016-04-07 03:23:00,1716E-3,5C000400,-0724,0836,12191,024.8,045.3,0.261,759.2,01.16,0.508
2016-04-07 03:24:00,1822E-3,5C000400,-0724,0836,12122,024.8,045.3,0.261,759.2,01.16,0.508
2016-04-07 03:25:00,1842E-3,5C000400,-0724,0836,12132,024.8,045.3,0.261,759.2,01.16,0.508
2016-04-07 03:26:00,1906E-3,5C000400,-0724,0835,12078,024.9,045.3,0.261,759.2,01.16,0.508
2016-04-07 03:27:00,1747E-3,5C000400,-0724,0835,12159,024.8,045.3,0.261,759.2,01.16,0.508
2016-04-07 03:28:00,1819E-3,5C000400,-0724,0836,12232,024.8,045.3,0.261,759.2,01.16,0.508
2016-04-07 03:29:00,1660E-3,5C000400,-0724,0835,12177,024.9,045.3,0.261,759.2,01.16,0.508
2016-04-07 03:30:00,1855E-3,5C000400,-0724,0836,12176,024.9,045.3,0.261,759.2,01.16,0.508
2016-04-07 03:31:00,1769E-3,5C000400,-0724,0835,12269,024.8,045.3,0.261,759.3,01.16,0.508
2016-04-07 03:32:00,1785E-3,5C000400,-0724,0835,12115,024.9,045.3,0.261,759.3,01.16,0.508
2016-04-07 03:33:00,1770E-3,5C000400,-0724,0836,12050,024.9,045.3,0.261,759.3,01.16,0.508
2016-04-07 03:34:00,1877E-3,5C000400,-0724,0836,12103,024.9,045.3,0.261,759.3,01.16,0.508
2016-04-07 03:35:00,1781E-3,5C000400,-0724,0835,12106,024.9,045.3,0.261,759.3,01.16,0.508
2016-04-07 03:36:00,1704E-3,5C000400,-0724,0836,12323,024.9,045.3,0.261,759.3,01.16,0.508
2016-04-07 03:37:00,1744E-3,5C000400,-0724,0835,12123,024.9,045.3,0.261,759.3,01.16,0.508
2016-04-07 03:38:00,1785E-3,5C000400,-0724,0835,12241,024.9,045.3,0.260,759.3,01.16,0.508
2016-04-07 03:39:00,1708E-3,5C000400,-0724,0835,12310,024.9,045.3,0.260,759.3,01.16,0.508
2016-04-07 03:40:00,1777E-3,5C000400,-0724,0835,12234,025.0,045.3,0.261,759.3,01.16,0.508
2016-04-07 03:41:00,1679E-3,5C000400,-0724,0835,12212,025.0,045.3,0.261,759.3,01.16,0.508
2016-04-07 03:42:00,1769E-3,5C000400,-0724,0835,11957,025.0,045.3,0.261,759.3,01.16,0.508
2016-04-07 03:43:00,1739E-3,5C000400,-0724,0835,12113,025.0,045.3,0.260,759.3,01.16,0.508
2016-04-07 03:44:00,1863E-3,5C000400,-0724,0835,12157,025.0,045.3,0.260,759.3,01.16,0.508
2016-04-07 03:45:00,1780E-3,5C000400,-0724,0835,12148,025.1,045.3,0.261,759.3,01.16,0.508
2016-04-07 03:46:00,1825E-3,5C000400,-0724,0836,12138,025.1,045.3,0.261,759.3,01.16,0.508
2016-04-07 03:47:00,1741E-3,5C000400,-0724,0835,12066,025.1,045.3,0.260,759.3,01.16,0.508
2016-04-07 03:48:00,1651E-3,5C000400,-0724,0835,12214,025.1,045.3,0.260,759.3,01.16,0.508
2016-04-07 03:49:00,1864E-3,5C000400,-0724,0835,12168,025.1,045.3,0.261,759.3,01.16,0.508
2016-04-07 03:50:00,1751E-3,5C000400,-0724,0836,12156,025.1,045.3,0.261,759.3,01.16,0.508
2016-04-07 03:51:00,1732E-3,5C000400,-0724,0835,12099,025.1,045.3,0.260,759.3,01.16,0.508
2016-04-07 03:52:00,1890E-3,5C000400,-0724,0836,12257,025.1,045.3,0.260,759.3,01.16,0.508
2016-04-07 03:53:00,1868E-3,5C000400,-0724,0836,12058,025.1,045.3,0.260,759.3,01.16,0.508
2016-04-07 03:54:00,1709E-3,5C000400,-0724,0835,12119,025.1,045.3,0.260,759.3,01.16,0.508
2016-04-07 03:55:00,1732E-3,5C000400,-0724,0836,12225,025.2,045.3,0.261,759.3,01.16,0.508
2016-04-07 03:56:00,1863E-3,5C000400,-0724,0835,12149,025.2,045.3,0.260,759.3,01.16,0.508
2016-04-07 03:57:00,1876E-3,5C000400,-0724,0835,12000,025.2,045.3,0.260,759.4,01.16,0.508
2016-04-07 03:58:00,1702E-3,5C000400,-0724,0835,12091,025.2,045.3,0.260,759.4,01.16,0.508
2016-04-07 03:59:00,1840E-3,5C000400,-0724,0836,12037,025.2,045.3,0.260,759.3,01.16,0.508
2016-04-07 04:00:00,1735E-3,5C000400,-0724,0835,12223,025.2,045.3,0.260,759.4,01.16,0.508
2016-04-07 04:01:00,1742E-3,5C000400,-0724,0835,12160,025.2,045.3,0.260,759.4,01.16,0.508
2016-04-07 04:02:00,1872E-3,5C000400,-0724,0835,12017,025.2,045.4,0.260,759.4,01.16,0.508
2016-04-07 04:03:00,1862E-3,5C000400,-0724,0836,12260,025.2,045.3,0.260,759.4,01.16,0.508
2016-04-07 04:04:00,1681E-3,5C000400,-0724,0836,12251,025.3,045.3,0.260,759.4,01.16,0.508
2016-04-07 04:05:00,1690E-3,5C000400,-0724,0835,11919,025.3,045.3,0.260,759.4,01.16,0.508
2016-04-07 04:06:00,1919E-3,5C000400,-0724,0834,12146,025.3,045.3,0.260,759.4,01.16,0.508
2016-04-07 04:07:00,1845E-3,5C000400,-0724,0834,12151,025.3,045.4,0.260,759.4,01.16,0.508
2016-04-07 04:08:00,1814E-3,5C000400,-0724,0836,12153,025.3,045.3,0.260,759.4,01.16,0.508
2016-04-07 04:09:00,1866E-3,5C000400,-0724,0835,12165,025.3,045.3,0.260,759.4,01.16,0.508
2016-04-07 04:10:00,1810E-3,5C000400,-0724,0835,12023,025.3,045.3,0.260,759.4,01.16,0.508
2016-04-07 04:11:00,1876E-3,5C000400,-0724,0835,12084,025.3,045.3,0.260,759.5,01.16,0.508
2016-04-07 04:12:00,1781E-3,5C000400,-0724,0835,11933,025.4,045.3,0.260,759.5,01.16,0.508
2016-04-07 04:13:00,1865E-3,5C000400,-0724,0835,12105,025.3,045.3,0.260,759.5,01.16,0.508
2016-04-07 04:14:00,1784E-3,5C000400,-0724,0835,11983,025.4,045.3,0.260,759.5,01.16,0.508
2016-04-07 04:15:00,1871E-3,5C000400,-0724,0836,12218,025.4,045.3,0.260,759.5,01.16,0.508
2016-04-07 04:16:00,1729E-3,5C000400,-0724,0835,12221,025.4,045.3,0.260,759.5,01.16,0.508
2016-04-07 04:17:00,1675E-3,5C000400,-0724,0835,12101,025.4,045.3,0.260,759.5,01.16,0.508
2016-04-07 04:18:00,1839E-3,5C000400,-0724,0835,12036,025.4,045.3,0.260,759.5,01.16,0.508
2016-04-07 04:19:00,1917E-3,5C000400,-0724,0836,12187,025.4,045.3,0.260,759.5,01.16,0.508
2016-04-07 04:20:00,1740E-3,5C000400,-0724,0835,12121,025.4,045.3,0.260,759.5,01.16,0.508